Weather History for Blytheville Muni Airport, AR

Change the Weather History Date:

Saturday, September 8, 2012

  Actual Average Record
Temperature  
Mean Temperature 67 °F -  
Max Temperature 77 °F 88 °F 103 °F (1939)
Min Temperature 59 °F 67 °F 44 °F (1956)
Cooling Degree Days 2    
Growing Degree Days 17 (Base 50)    
Moisture  
Dew Point 61 °F    
Average Humidity 80    
Maximum Humidity 97    
Minimum Humidity 46    
Precipitation  
Precipitation 0.00 in - - ()
Sea Level Pressure  
Sea Level Pressure 29.93 in    
Wind  
Wind Speed 13 mph (North)    
Max Wind Speed 18 mph    
Max Gust Speed 26 mph    
Visibility 10 miles    
Events Rain    
Averages and records for this station are not official NWS values.
T = Trace of Precipitation, MM = Missing Value Source: NWS Daily Summary

Daily Weather History Graph

Daily Weather History Graph

Search for Another Location

Airport:

Trip Planner

Search our weather history database for the weather conditions in past years. The results will help you decide how hot, cold, wet, or windy it might be!

Date:

Astronomy

Sep. 08, 2012 Rise Set
Actual Time 6:36 AM CDT 7:16 PM CDT
Civil Twilight 6:11 AM CDT 7:41 PM CDT
Nautical Twilight 5:40 AM CDT 8:12 PM CDT
Astronomical Twilight 5:09 AM CDT 8:43 PM CDT
Moon No Moon Rise 2:04 PM CDT (9/8)
Length of Visible Light 13h 30m
Length of Day
12h 39m
Waning Gibbous, 48% of the Moon is Illuminated
Sep 8
Waning Gibbous
Sep 15
New
Sep 22
First Quarter
Sep 29
Full
Oct 8
Last Quarter

Hourly Weather History & Observations

Time (CDT) Temp. Dew Point Humidity Pressure Visibility Wind Dir Wind Speed Gust Speed Precip Events Conditions
12:53 AM 71.1 °F 69.1 °F 93% 29.85 in 10.0 mi West 10.4 mph - N/A Rain Heavy Rain
2:53 AM 68.0 °F 66.9 °F 96% 29.82 in 10.0 mi North 15.0 mph 26.5 mph N/A Rain Light Rain
3:05 AM 68.0 °F 66.2 °F 94% 29.83 in 10.0 mi North 17.3 mph 25.3 mph 0.00 in   Overcast
3:18 AM 68.0 °F 66.2 °F 94% 29.83 in 10.0 mi North 13.8 mph - 0.00 in   Overcast
3:48 AM 69.8 °F 68.0 °F 94% 29.84 in 10.0 mi North 16.1 mph 24.2 mph 0.00 in Rain Light Rain
3:53 AM 68.0 °F 66.9 °F 96% 29.84 in 10.0 mi North 18.4 mph 24.2 mph 0.00 in Rain Light Rain
4:01 AM 68.0 °F 66.2 °F 94% 29.85 in 10.0 mi North 15.0 mph 24.2 mph 0.00 in Rain Light Rain
4:11 AM 68.0 °F 66.2 °F 94% 29.85 in 10.0 mi North 13.8 mph 21.9 mph 0.00 in   Overcast
4:53 AM 68.0 °F 66.9 °F 96% 29.86 in 10.0 mi North 15.0 mph - 0.00 in   Overcast
5:30 AM 68.0 °F 66.2 °F 94% 29.87 in 10.0 mi North 12.7 mph - N/A   Overcast
5:53 AM 66.9 °F 66.0 °F 97% 29.88 in 10.0 mi NNW 13.8 mph 19.6 mph N/A   Overcast
6:21 AM 66.2 °F 64.4 °F 94% 29.90 in 10.0 mi North 13.8 mph 23.0 mph 0.00 in Rain Light Rain
6:53 AM 64.9 °F 62.1 °F 90% 29.91 in 10.0 mi North 15.0 mph 21.9 mph 0.00 in Rain Light Rain
7:09 AM 64.4 °F 62.6 °F 94% 29.93 in 10.0 mi NNW 11.5 mph - 0.00 in   Overcast
7:53 AM 64.0 °F 61.0 °F 90% 29.96 in 10.0 mi North 12.7 mph - 0.00 in   Scattered Clouds
9:53 AM 68.0 °F 57.9 °F 70% 29.99 in 10.0 mi North 18.4 mph 24.2 mph N/A   Partly Cloudy
10:53 AM 71.1 °F 57.0 °F 61% 30.01 in 10.0 mi North 16.1 mph 25.3 mph N/A   Clear
11:53 AM 72.0 °F 55.0 °F 55% 30.01 in 10.0 mi NNE 13.8 mph 25.3 mph N/A   Partly Cloudy
12:53 PM 73.9 °F 55.0 °F 52% 30.00 in 10.0 mi North 17.3 mph 25.3 mph N/A   Partly Cloudy
1:53 PM 73.9 °F 55.0 °F 52% 29.99 in 10.0 mi North 13.8 mph 19.6 mph N/A   Mostly Cloudy
2:53 PM 75.0 °F 55.0 °F 50% 29.97 in 10.0 mi North 12.7 mph 20.7 mph N/A   Partly Cloudy
3:53 PM 75.9 °F 54.0 °F 46% 29.96 in 10.0 mi North 10.4 mph - N/A   Partly Cloudy
4:53 PM 73.9 °F 55.0 °F 52% 29.95 in 10.0 mi NNW 8.1 mph - N/A   Clear
5:53 PM 73.9 °F 55.0 °F 52% 29.96 in 10.0 mi North 8.1 mph - N/A   Clear
6:53 PM 69.1 °F 57.9 °F 68% 29.97 in 10.0 mi North 5.8 mph - N/A   Clear
7:53 PM 66.0 °F 57.9 °F 75% 29.98 in 10.0 mi Calm Calm - N/A   Clear
8:53 PM 63.0 °F 57.9 °F 84% 30.00 in 10.0 mi Calm Calm - N/A   Clear
9:53 PM 61.0 °F 57.0 °F 87% 30.02 in 10.0 mi WNW 3.5 mph - N/A   Clear
10:53 PM 59.0 °F 55.9 °F 90% 30.02 in 10.0 mi NNW 5.8 mph - N/A   Clear
11:53 PM 59.0 °F 55.9 °F 90% 30.02 in 10.0 mi Calm Calm - N/A   Clear